owner,sensor,date,latitude,longitude,vertical_datum,wind_speed,wind_to_direction,wind_speed_of_gust,qcFlag 
COMPS,ioos:station:USF.COMPS:NFB:1,2015-06-01T00:00:00Z,25.0840,-81.0960,6.0,6.23,158.94,7.35,'1111122,1111122,1111122' 
COMPS,ioos:station:USF.COMPS:NFB:1,2015-06-01T00:06:00Z,25.0840,-81.0960,6.0,5.86,151.45,7.05,'1111122,1111122,1111122' 
COMPS,ioos:station:USF.COMPS:NFB:1,2015-06-01T00:12:00Z,25.0840,-81.0960,6.0,6.23,145.91,7.15,'1111122,1111122,1111122' 
COMPS,ioos:station:USF.COMPS:NFB:1,2015-06-01T00:18:00Z,25.0840,-81.0960,6.0,5.86,146.25,6.95,'1111122,1111122,1111122' 
COMPS,ioos:station:USF.COMPS:NFB:1,2015-06-01T00:24:00Z,25.0840,-81.0960,6.0,5.87,141.42,6.95,'1111122,1111122,1111122' 
COMPS,ioos:station:USF.COMPS:NFB:1,2015-06-01T00:30:00Z,25.0840,-81.0960,6.0,6.06,149.52,7.05,'1111122,1111122,1111122' 
COMPS,ioos:station:USF.COMPS:NFB:1,2015-06-01T00:36:00Z,25.0840,-81.0960,6.0,5.97,145.0,6.85,'1111122,1111122,1111122' 
COMPS,ioos:station:USF.COMPS:NFB:1,2015-06-01T00:42:00Z,25.0840,-81.0960,6.0,5.92,143.47,6.56,'1111122,1111122,1111122' 
COMPS,ioos:station:USF.COMPS:NFB:1,2015-06-01T00:48:00Z,25.0840,-81.0960,6.0,5.66,147.54,6.85,'1111122,1111122,1111122' 
COMPS,ioos:station:USF.COMPS:NFB:1,2015-06-01T00:54:00Z,25.0840,-81.0960,6.0,5.38,147.37,6.46,'1111122,1111122,1111122' 
COMPS,ioos:station:USF.COMPS:NFB:1,2015-06-01T01:00:00Z,25.0840,-81.0960,6.0,5.44,149.14,6.37,'1111122,1111122,1111122' 
COMPS,ioos:station:USF.COMPS:NFB:1,2015-06-01T01:06:00Z,25.0840,-81.0960,6.0,5.99,148.81,6.76,'1111122,1111122,1111122' 
COMPS,ioos:station:USF.COMPS:NFB:1,2015-06-01T01:12:00Z,25.0840,-81.0960,6.0,5.79,152.92,6.56,'1111122,1111122,1111122' 
COMPS,ioos:station:USF.COMPS:NFB:1,2015-06-01T01:18:00Z,25.0840,-81.0960,6.0,5.16,143.69,6.27,'1111122,1111122,1111122' 
COMPS,ioos:station:USF.COMPS:NFB:1,2015-06-01T01:24:00Z,25.0840,-81.0960,6.0,5.24,145.37,6.37,'1111122,1111122,1111122' 
COMPS,ioos:station:USF.COMPS:NFB:1,2015-06-01T01:30:00Z,25.0840,-81.0960,6.0,5.43,147.47,6.76,'1111122,1111122,1111122' 
COMPS,ioos:station:USF.COMPS:NFB:1,2015-06-01T01:36:00Z,25.0840,-81.0960,6.0,5.65,147.27,6.56,'1111122,1111122,1111122' 
COMPS,ioos:station:USF.COMPS:NFB:1,2015-06-01T01:42:00Z,25.0840,-81.0960,6.0,5.37,143.47,6.66,'1111122,1111122,1111122' 
COMPS,ioos:station:USF.COMPS:NFB:1,2015-06-01T01:48:00Z,25.0840,-81.0960,6.0,5.59,139.25,6.85,'1111122,1111122,1111122' 
COMPS,ioos:station:USF.COMPS:NFB:1,2015-06-01T01:54:00Z,25.0840,-81.0960,6.0,5.67,141.36,6.76,'1111122,1111122,1111122' 
COMPS,ioos:station:USF.COMPS:NFB:1,2015-06-01T03:00:00Z,25.0840,-81.0960,6.0,5.12,135.21,6.76,'1111122,1111122,1111122' 
COMPS,ioos:station:USF.COMPS:NFB:1,2015-06-01T03:06:00Z,25.0840,-81.0960,6.0,4.9,132.68,5.97,'1111122,1111122,1111122' 
COMPS,ioos:station:USF.COMPS:NFB:1,2015-06-01T03:12:00Z,25.0840,-81.0960,6.0,5.39,122.52,6.66,'1111122,1111122,1111122' 
COMPS,ioos:station:USF.COMPS:NFB:1,2015-06-01T03:18:00Z,25.0840,-81.0960,6.0,5.41,132.64,6.46,'1111122,1111122,1111122' 
COMPS,ioos:station:USF.COMPS:NFB:1,2015-06-01T03:24:00Z,25.0840,-81.0960,6.0,5.02,139.79,5.78,'1111122,1111122,1111122' 
COMPS,ioos:station:USF.COMPS:NFB:1,2015-06-01T03:30:00Z,25.0840,-81.0960,6.0,5.0,137.26,6.27,'1111122,1111122,1111122' 
COMPS,ioos:station:USF.COMPS:NFB:1,2015-06-01T03:36:00Z,25.0840,-81.0960,6.0,4.91,128.02,5.58,'1111122,1111122,1111122' 
COMPS,ioos:station:USF.COMPS:NFB:1,2015-06-01T03:42:00Z,25.0840,-81.0960,6.0,4.37,122.51,6.17,'1111122,1111122,1111122' 
COMPS,ioos:station:USF.COMPS:NFB:1,2015-06-01T03:48:00Z,25.0840,-81.0960,6.0,4.51,120.17,5.29,'1111122,1111122,1111122' 
COMPS,ioos:station:USF.COMPS:NFB:1,2015-06-01T03:54:00Z,25.0840,-81.0960,6.0,3.86,121.6,4.99,'1111122,1111122,1111122' 
COMPS,ioos:station:USF.COMPS:NFB:1,2015-06-01T04:00:00Z,25.0840,-81.0960,6.0,4.27,133.43,5.39,'1111122,1111122,1111122' 
COMPS,ioos:station:USF.COMPS:NFB:1,2015-06-01T04:06:00Z,25.0840,-81.0960,6.0,4.51,134.36,5.29,'1111122,1111122,1111122' 
COMPS,ioos:station:USF.COMPS:NFB:1,2015-06-01T04:12:00Z,25.0840,-81.0960,6.0,4.18,123.95,4.9,'1111122,1111122,1111122' 
COMPS,ioos:station:USF.COMPS:NFB:1,2015-06-01T04:18:00Z,25.0840,-81.0960,6.0,3.89,120.74,5.48,'1111122,1111122,1111122' 
COMPS,ioos:station:USF.COMPS:NFB:1,2015-06-01T04:24:00Z,25.0840,-81.0960,6.0,3.77,123.53,4.7,'1111122,1111122,1111122' 
COMPS,ioos:station:USF.COMPS:NFB:1,2015-06-01T04:30:00Z,25.0840,-81.0960,6.0,4.12,128.39,5.29,'1111122,1111122,1111122' 
COMPS,ioos:station:USF.COMPS:NFB:1,2015-06-01T04:36:00Z,25.0840,-81.0960,6.0,4.1,128.51,4.9,'1111122,1111122,1111122' 
COMPS,ioos:station:USF.COMPS:NFB:1,2015-06-01T04:42:00Z,25.0840,-81.0960,6.0,4.54,128.13,6.07,'1111122,1111122,1111122' 
COMPS,ioos:station:USF.COMPS:NFB:1,2015-06-01T04:48:00Z,25.0840,-81.0960,6.0,4.26,128.26,5.48,'1111122,1111122,1111122' 
COMPS,ioos:station:USF.COMPS:NFB:1,2015-06-01T04:54:00Z,25.0840,-81.0960,6.0,4.77,135.11,6.27,'1111122,1111122,1111122' 
COMPS,ioos:station:USF.COMPS:NFB:1,2015-06-01T05:00:00Z,25.0840,-81.0960,6.0,4.87,141.76,6.37,'1111122,1111122,1111122' 
COMPS,ioos:station:USF.COMPS:NFB:1,2015-06-01T05:06:00Z,25.0840,-81.0960,6.0,5.55,141.4,6.46,'1111122,1111122,1111122' 
COMPS,ioos:station:USF.COMPS:NFB:1,2015-06-01T05:12:00Z,25.0840,-81.0960,6.0,4.75,141.22,5.87,'1111122,1111122,1111122' 
COMPS,ioos:station:USF.COMPS:NFB:1,2015-06-01T05:18:00Z,25.0840,-81.0960,6.0,4.6,135.34,6.07,'1111122,1111122,1111122' 
COMPS,ioos:station:USF.COMPS:NFB:1,2015-06-01T05:24:00Z,25.0840,-81.0960,6.0,4.56,143.74,5.68,'1111122,1111122,1111122' 
COMPS,ioos:station:USF.COMPS:NFB:1,2015-06-01T05:30:00Z,25.0840,-81.0960,6.0,4.42,140.17,5.78,'1111122,1111122,1111122' 
COMPS,ioos:station:USF.COMPS:NFB:1,2015-06-01T05:36:00Z,25.0840,-81.0960,6.0,4.7,143.06,5.39,'1111122,1111122,1111122' 
COMPS,ioos:station:USF.COMPS:NFB:1,2015-06-01T05:42:00Z,25.0840,-81.0960,6.0,4.27,141.56,5.39,'1111122,1111122,1111122' 
COMPS,ioos:station:USF.COMPS:NFB:1,2015-06-01T05:48:00Z,25.0840,-81.0960,6.0,4.42,139.81,5.48,'1111122,1111122,1111122' 
COMPS,ioos:station:USF.COMPS:NFB:1,2015-06-01T05:54:00Z,25.0840,-81.0960,6.0,4.16,142.75,5.19,'1111122,1111122,1111122' 
COMPS,ioos:station:USF.COMPS:NFB:1,2015-06-01T06:00:00Z,25.0840,-81.0960,6.0,4.68,150.57,5.39,'1111122,1111122,1111122' 
COMPS,ioos:station:USF.COMPS:NFB:1,2015-06-01T06:06:00Z,25.0840,-81.0960,6.0,4.35,137.98,5.09,'1111122,1111122,1111122' 
COMPS,ioos:station:USF.COMPS:NFB:1,2015-06-01T06:12:00Z,25.0840,-81.0960,6.0,4.22,134.87,5.39,'1111122,1111122,1111122' 
COMPS,ioos:station:USF.COMPS:NFB:1,2015-06-01T06:18:00Z,25.0840,-81.0960,6.0,4.29,129.47,5.87,'1111122,1111122,1111122' 
COMPS,ioos:station:USF.COMPS:NFB:1,2015-06-01T06:24:00Z,25.0840,-81.0960,6.0,4.25,130.0,5.19,'1111122,1111122,1111122' 
COMPS,ioos:station:USF.COMPS:NFB:1,2015-06-01T06:30:00Z,25.0840,-81.0960,6.0,4.34,138.93,5.68,'1111122,1111122,1111122' 
COMPS,ioos:station:USF.COMPS:NFB:1,2015-06-01T06:36:00Z,25.0840,-81.0960,6.0,4.92,139.3,6.07,'1111122,1111122,1111122' 
COMPS,ioos:station:USF.COMPS:NFB:1,2015-06-01T06:42:00Z,25.0840,-81.0960,6.0,4.77,142.8,6.27,'1111122,1111122,1111122' 
COMPS,ioos:station:USF.COMPS:NFB:1,2015-06-01T06:48:00Z,25.0840,-81.0960,6.0,4.87,136.0,6.56,'1111122,1111122,1111122' 
COMPS,ioos:station:USF.COMPS:NFB:1,2015-06-01T06:54:00Z,25.0840,-81.0960,6.0,4.77,130.4,5.68,'1111122,1111122,1111122' 
COMPS,ioos:station:USF.COMPS:NFB:1,2015-06-01T07:00:00Z,25.0840,-81.0960,6.0,4.71,134.67,5.78,'1111122,1111122,1111122' 
COMPS,ioos:station:USF.COMPS:NFB:1,2015-06-01T07:06:00Z,25.0840,-81.0960,6.0,4.75,152.78,5.68,'1111122,1111122,1111122' 
COMPS,ioos:station:USF.COMPS:NFB:1,2015-06-01T07:12:00Z,25.0840,-81.0960,6.0,4.66,146.62,5.58,'1111122,1111122,1111122' 
COMPS,ioos:station:USF.COMPS:NFB:1,2015-06-01T07:18:00Z,25.0840,-81.0960,6.0,4.78,139.7,5.87,'1111122,1111122,1111122' 
COMPS,ioos:station:USF.COMPS:NFB:1,2015-06-01T07:24:00Z,25.0840,-81.0960,6.0,4.62,148.59,5.78,'1111122,1111122,1111122' 
COMPS,ioos:station:USF.COMPS:NFB:1,2015-06-01T07:30:00Z,25.0840,-81.0960,6.0,4.27,137.96,5.09,'1111122,1111122,1111122' 
COMPS,ioos:station:USF.COMPS:NFB:1,2015-06-01T07:36:00Z,25.0840,-81.0960,6.0,4.63,142.31,5.19,'1111122,1111122,1111122' 
COMPS,ioos:station:USF.COMPS:NFB:1,2015-06-01T07:42:00Z,25.0840,-81.0960,6.0,3.84,141.5,4.5,'1111122,1111122,1111122' 
COMPS,ioos:station:USF.COMPS:NFB:1,2015-06-01T07:48:00Z,25.0840,-81.0960,6.0,4.08,142.15,5.09,'1111122,1111122,1111122' 
COMPS,ioos:station:USF.COMPS:NFB:1,2015-06-01T07:54:00Z,25.0840,-81.0960,6.0,4.21,140.71,5.29,'1111122,1111122,1111122' 
COMPS,ioos:station:USF.COMPS:NFB:1,2015-06-01T08:00:00Z,25.0840,-81.0960,6.0,4.2,143.23,5.29,'1111122,1111122,1111122' 
COMPS,ioos:station:USF.COMPS:NFB:1,2015-06-01T08:06:00Z,25.0840,-81.0960,6.0,4.12,139.81,4.8,'1111122,1111122,1111122' 
COMPS,ioos:station:USF.COMPS:NFB:1,2015-06-01T08:12:00Z,25.0840,-81.0960,6.0,4.12,142.65,5.48,'1111122,1111122,1111122' 
COMPS,ioos:station:USF.COMPS:NFB:1,2015-06-01T08:18:00Z,25.0840,-81.0960,6.0,3.88,147.01,4.9,'1111122,1111122,1111122' 
COMPS,ioos:station:USF.COMPS:NFB:1,2015-06-01T08:24:00Z,25.0840,-81.0960,6.0,4.04,136.17,4.7,'1111122,1111122,1111122' 
COMPS,ioos:station:USF.COMPS:NFB:1,2015-06-01T08:30:00Z,25.0840,-81.0960,6.0,3.58,140.0,4.6,'1111122,1111122,1111122' 
COMPS,ioos:station:USF.COMPS:NFB:1,2015-06-01T08:36:00Z,25.0840,-81.0960,6.0,3.99,138.24,4.7,'1111122,1111122,1111122' 
COMPS,ioos:station:USF.COMPS:NFB:1,2015-06-01T08:42:00Z,25.0840,-81.0960,6.0,3.63,141.57,4.31,'1111122,1111122,1111122' 
COMPS,ioos:station:USF.COMPS:NFB:1,2015-06-01T08:48:00Z,25.0840,-81.0960,6.0,3.62,137.71,4.31,'1111122,1111122,1111122' 
COMPS,ioos:station:USF.COMPS:NFB:1,2015-06-01T08:54:00Z,25.0840,-81.0960,6.0,3.65,143.44,4.7,'1111122,1111122,1111122' 
COMPS,ioos:station:USF.COMPS:NFB:1,2015-06-01T09:00:00Z,25.0840,-81.0960,6.0,2.99,141.19,3.82,'1111122,1111122,1111122' 
COMPS,ioos:station:USF.COMPS:NFB:1,2015-06-01T09:06:00Z,25.0840,-81.0960,6.0,3.47,138.09,4.5,'1111122,1111122,1111122' 
COMPS,ioos:station:USF.COMPS:NFB:1,2015-06-01T09:12:00Z,25.0840,-81.0960,6.0,3.4,151.31,4.31,'1111122,1111122,1111122' 
COMPS,ioos:station:USF.COMPS:NFB:1,2015-06-01T09:18:00Z,25.0840,-81.0960,6.0,3.8,146.05,4.9,'1111122,1111122,1111122' 
COMPS,ioos:station:USF.COMPS:NFB:1,2015-06-01T09:24:00Z,25.0840,-81.0960,6.0,3.48,144.62,4.8,'1111122,1111122,1111122' 
COMPS,ioos:station:USF.COMPS:NFB:1,2015-06-01T09:30:00Z,25.0840,-81.0960,6.0,2.89,152.04,3.52,'1111122,1111122,1111122' 
COMPS,ioos:station:USF.COMPS:NFB:1,2015-06-01T09:36:00Z,25.0840,-81.0960,6.0,2.96,138.94,3.52,'1111122,1111122,1111122' 
COMPS,ioos:station:USF.COMPS:NFB:1,2015-06-01T09:42:00Z,25.0840,-81.0960,6.0,3.61,131.89,4.6,'1111122,1111122,1111122' 
COMPS,ioos:station:USF.COMPS:NFB:1,2015-06-01T09:48:00Z,25.0840,-81.0960,6.0,3.58,134.23,4.5,'1111122,1111122,1111122' 
COMPS,ioos:station:USF.COMPS:NFB:1,2015-06-01T09:54:00Z,25.0840,-81.0960,6.0,3.63,134.93,4.5,'1111122,1111122,1111122' 
COMPS,ioos:station:USF.COMPS:NFB:1,2015-06-01T10:00:00Z,25.0840,-81.0960,6.0,4.09,147.64,4.99,'1111122,1111122,1111122' 
COMPS,ioos:station:USF.COMPS:NFB:1,2015-06-01T10:06:00Z,25.0840,-81.0960,6.0,3.73,141.89,4.6,'1111122,1111122,1111122' 
COMPS,ioos:station:USF.COMPS:NFB:1,2015-06-01T10:12:00Z,25.0840,-81.0960,6.0,3.99,141.27,4.7,'1111122,1111122,1111122' 
COMPS,ioos:station:USF.COMPS:NFB:1,2015-06-01T10:18:00Z,25.0840,-81.0960,6.0,3.99,141.47,4.9,'1111122,1111122,1111122' 
COMPS,ioos:station:USF.COMPS:NFB:1,2015-06-01T10:24:00Z,25.0840,-81.0960,6.0,3.81,136.45,4.5,'1111122,1111122,1111122' 
COMPS,ioos:station:USF.COMPS:NFB:1,2015-06-01T10:30:00Z,25.0840,-81.0960,6.0,4.01,148.42,5.19,'1111122,1111122,1111122' 
COMPS,ioos:station:USF.COMPS:NFB:1,2015-06-01T10:36:00Z,25.0840,-81.0960,6.0,3.81,159.2,4.31,'1111122,1111122,1111122' 
COMPS,ioos:station:USF.COMPS:NFB:1,2015-06-01T10:42:00Z,25.0840,-81.0960,6.0,3.3,151.3,4.31,'1111122,1111122,1111122' 
COMPS,ioos:station:USF.COMPS:NFB:1,2015-06-01T10:48:00Z,25.0840,-81.0960,6.0,3.56,162.44,4.7,'1111122,1111122,1111122' 
COMPS,ioos:station:USF.COMPS:NFB:1,2015-06-01T10:54:00Z,25.0840,-81.0960,6.0,3.55,141.58,4.41,'1111122,1111122,1111122' 
COMPS,ioos:station:USF.COMPS:NFB:1,2015-06-01T11:00:00Z,25.0840,-81.0960,6.0,3.54,134.36,5.09,'1111122,1111122,1111122' 
COMPS,ioos:station:USF.COMPS:NFB:1,2015-06-01T11:06:00Z,25.0840,-81.0960,6.0,3.98,140.47,4.9,'1111122,1111122,1111122' 
COMPS,ioos:station:USF.COMPS:NFB:1,2015-06-01T11:12:00Z,25.0840,-81.0960,6.0,3.73,145.16,4.41,'1111122,1111122,1111122' 
COMPS,ioos:station:USF.COMPS:NFB:1,2015-06-01T11:18:00Z,25.0840,-81.0960,6.0,3.36,139.94,4.01,'1111122,1111122,1111122' 
COMPS,ioos:station:USF.COMPS:NFB:1,2015-06-01T11:24:00Z,25.0840,-81.0960,6.0,3.56,135.29,4.31,'1111122,1111122,1111122' 
COMPS,ioos:station:USF.COMPS:NFB:1,2015-06-01T11:30:00Z,25.0840,-81.0960,6.0,2.83,103.47,3.82,'1111122,1111122,1111122' 
COMPS,ioos:station:USF.COMPS:NFB:1,2015-06-01T11:36:00Z,25.0840,-81.0960,6.0,2.95,102.76,3.82,'1111122,1111122,1111122' 
COMPS,ioos:station:USF.COMPS:NFB:1,2015-06-01T11:42:00Z,25.0840,-81.0960,6.0,3.05,91.05,3.91,'1111122,1111122,1111122' 
COMPS,ioos:station:USF.COMPS:NFB:1,2015-06-01T11:48:00Z,25.0840,-81.0960,6.0,3.1,89.58,3.91,'1111122,1111122,1111122' 
COMPS,ioos:station:USF.COMPS:NFB:1,2015-06-01T11:54:00Z,25.0840,-81.0960,6.0,2.66,99.77,3.42,'1111122,1111122,1111122' 
COMPS,ioos:station:USF.COMPS:NFB:1,2015-06-01T12:00:00Z,25.0840,-81.0960,6.0,2.65,90.94,3.23,'1111122,1111122,1111122' 
COMPS,ioos:station:USF.COMPS:NFB:1,2015-06-01T12:06:00Z,25.0840,-81.0960,6.0,2.63,93.96,3.23,'1111122,1111122,1111122' 
COMPS,ioos:station:USF.COMPS:NFB:1,2015-06-01T12:12:00Z,25.0840,-81.0960,6.0,2.78,60.86,3.82,'1111122,1111122,1111122' 
COMPS,ioos:station:USF.COMPS:NFB:1,2015-06-01T12:18:00Z,25.0840,-81.0960,6.0,3.05,49.3,3.72,'1111122,1111122,1111122' 
COMPS,ioos:station:USF.COMPS:NFB:1,2015-06-01T12:24:00Z,25.0840,-81.0960,6.0,3.05,53.33,3.72,'1111122,1111122,1111122' 
COMPS,ioos:station:USF.COMPS:NFB:1,2015-06-01T12:30:00Z,25.0840,-81.0960,6.0,2.77,55.93,3.23,'1111122,1111122,1111122' 
COMPS,ioos:station:USF.COMPS:NFB:1,2015-06-01T12:36:00Z,25.0840,-81.0960,6.0,2.58,57.22,3.13,'1111122,1111122,1111122' 
COMPS,ioos:station:USF.COMPS:NFB:1,2015-06-01T12:42:00Z,25.0840,-81.0960,6.0,2.43,57.33,2.84,'1111122,1111122,1111122' 
COMPS,ioos:station:USF.COMPS:NFB:1,2015-06-01T12:48:00Z,25.0840,-81.0960,6.0,2.44,66.43,2.84,'1111122,1111122,1111122' 
COMPS,ioos:station:USF.COMPS:NFB:1,2015-06-01T12:54:00Z,25.0840,-81.0960,6.0,2.27,63.3,2.74,'1111122,1111122,1111122' 
COMPS,ioos:station:USF.COMPS:NFB:1,2015-06-01T13:00:00Z,25.0840,-81.0960,6.0,2.46,73.26,2.93,'1111122,1111122,1111122' 
COMPS,ioos:station:USF.COMPS:NFB:1,2015-06-01T13:06:00Z,25.0840,-81.0960,6.0,2.75,78.18,3.42,'1111122,1111122,1111122' 
COMPS,ioos:station:USF.COMPS:NFB:1,2015-06-01T13:12:00Z,25.0840,-81.0960,6.0,2.74,79.28,3.52,'1111122,1111122,1111122' 
COMPS,ioos:station:USF.COMPS:NFB:1,2015-06-01T13:18:00Z,25.0840,-81.0960,6.0,2.7,79.3,3.42,'1111122,1111122,1111122' 
COMPS,ioos:station:USF.COMPS:NFB:1,2015-06-01T13:24:00Z,25.0840,-81.0960,6.0,2.46,81.17,3.13,'1111122,1111122,1111122' 
COMPS,ioos:station:USF.COMPS:NFB:1,2015-06-01T13:30:00Z,25.0840,-81.0960,6.0,2.8,80.25,3.42,'1111122,1111122,1111122' 
COMPS,ioos:station:USF.COMPS:NFB:1,2015-06-01T13:36:00Z,25.0840,-81.0960,6.0,3.02,82.1,3.52,'1111122,1111122,1111122' 
COMPS,ioos:station:USF.COMPS:NFB:1,2015-06-01T13:42:00Z,25.0840,-81.0960,6.0,2.67,90.44,3.52,'1111122,1111122,1111122' 
COMPS,ioos:station:USF.COMPS:NFB:1,2015-06-01T13:48:00Z,25.0840,-81.0960,6.0,3.33,96.52,4.01,'1111122,1111122,1111122' 
COMPS,ioos:station:USF.COMPS:NFB:1,2015-06-01T13:54:00Z,25.0840,-81.0960,6.0,3.32,83.47,4.31,'1111122,1111122,1111122' 
COMPS,ioos:station:USF.COMPS:NFB:1,2015-06-01T14:00:00Z,25.0840,-81.0960,6.0,3.89,105.24,4.9,'1111122,1111122,1111122' 
COMPS,ioos:station:USF.COMPS:NFB:1,2015-06-01T14:06:00Z,25.0840,-81.0960,6.0,3.77,108.64,4.7,'1111122,1111122,1111122' 
COMPS,ioos:station:USF.COMPS:NFB:1,2015-06-01T14:12:00Z,25.0840,-81.0960,6.0,3.65,121.11,5.19,'1111122,1111122,1111122' 
COMPS,ioos:station:USF.COMPS:NFB:1,2015-06-01T14:18:00Z,25.0840,-81.0960,6.0,3.78,129.31,4.31,'1111122,1111122,1111122' 
COMPS,ioos:station:USF.COMPS:NFB:1,2015-06-01T14:24:00Z,25.0840,-81.0960,6.0,3.78,126.81,4.5,'1111122,1111122,1111122' 
COMPS,ioos:station:USF.COMPS:NFB:1,2015-06-01T14:30:00Z,25.0840,-81.0960,6.0,4.33,133.4,5.19,'1111122,1111122,1111122' 
COMPS,ioos:station:USF.COMPS:NFB:1,2015-06-01T14:36:00Z,25.0840,-81.0960,6.0,3.7,119.19,4.7,'1111122,1111122,1111122' 
COMPS,ioos:station:USF.COMPS:NFB:1,2015-06-01T14:42:00Z,25.0840,-81.0960,6.0,3.96,121.54,4.7,'1111122,1111122,1111122' 
COMPS,ioos:station:USF.COMPS:NFB:1,2015-06-01T14:48:00Z,25.0840,-81.0960,6.0,4.24,123.07,5.58,'1111122,1111122,1111122' 
COMPS,ioos:station:USF.COMPS:NFB:1,2015-06-01T14:54:00Z,25.0840,-81.0960,6.0,4.62,134.17,5.48,'1111122,1111122,1111122' 
COMPS,ioos:station:USF.COMPS:NFB:1,2015-06-01T15:00:00Z,25.0840,-81.0960,6.0,4.76,130.88,5.58,'1111122,1111122,1111122' 
COMPS,ioos:station:USF.COMPS:NFB:1,2015-06-01T15:06:00Z,25.0840,-81.0960,6.0,4.6,137.84,5.78,'1111122,1111122,1111122' 
COMPS,ioos:station:USF.COMPS:NFB:1,2015-06-01T15:12:00Z,25.0840,-81.0960,6.0,5.07,141.86,6.27,'1111122,1111122,1111122' 
COMPS,ioos:station:USF.COMPS:NFB:1,2015-06-01T15:18:00Z,25.0840,-81.0960,6.0,5.12,141.18,5.97,'1111122,1111122,1111122' 
COMPS,ioos:station:USF.COMPS:NFB:1,2015-06-01T15:24:00Z,25.0840,-81.0960,6.0,4.97,144.64,6.17,'1111122,1111122,1111122' 
COMPS,ioos:station:USF.COMPS:NFB:1,2015-06-01T15:30:00Z,25.0840,-81.0960,6.0,4.95,147.3,5.58,'1111122,1111122,1111122' 
COMPS,ioos:station:USF.COMPS:NFB:1,2015-06-01T15:36:00Z,25.0840,-81.0960,6.0,4.75,143.9,5.48,'1111122,1111122,1111122' 
COMPS,ioos:station:USF.COMPS:NFB:1,2015-06-01T15:42:00Z,25.0840,-81.0960,6.0,4.69,145.68,5.68,'1111122,1111122,1111122' 
COMPS,ioos:station:USF.COMPS:NFB:1,2015-06-01T15:48:00Z,25.0840,-81.0960,6.0,4.73,145.2,5.78,'1111122,1111122,1111122' 
COMPS,ioos:station:USF.COMPS:NFB:1,2015-06-01T15:54:00Z,25.0840,-81.0960,6.0,4.46,141.57,5.78,'1111122,1111122,1111122' 
COMPS,ioos:station:USF.COMPS:NFB:1,2015-06-01T16:00:00Z,25.0840,-81.0960,6.0,4.82,146.51,5.78,'1111122,1111122,1111122' 
COMPS,ioos:station:USF.COMPS:NFB:1,2015-06-01T16:06:00Z,25.0840,-81.0960,6.0,4.6,147.8,5.87,'1111122,1111122,1111122' 
COMPS,ioos:station:USF.COMPS:NFB:1,2015-06-01T16:12:00Z,25.0840,-81.0960,6.0,4.42,148.74,5.29,'1111122,1111122,1111122' 
COMPS,ioos:station:USF.COMPS:NFB:1,2015-06-01T16:18:00Z,25.0840,-81.0960,6.0,4.79,143.14,5.97,'1111122,1111122,1111122' 
COMPS,ioos:station:USF.COMPS:NFB:1,2015-06-01T16:24:00Z,25.0840,-81.0960,6.0,4.81,144.51,5.58,'1111122,1111122,1111122' 
COMPS,ioos:station:USF.COMPS:NFB:1,2015-06-01T16:30:00Z,25.0840,-81.0960,6.0,5.48,146.6,6.37,'1111122,1111122,1111122' 
COMPS,ioos:station:USF.COMPS:NFB:1,2015-06-01T16:36:00Z,25.0840,-81.0960,6.0,5.02,153.8,5.87,'1111122,1111122,1111122' 
COMPS,ioos:station:USF.COMPS:NFB:1,2015-06-01T16:42:00Z,25.0840,-81.0960,6.0,5.06,158.16,5.87,'1111122,1111122,1111122' 
COMPS,ioos:station:USF.COMPS:NFB:1,2015-06-01T16:48:00Z,25.0840,-81.0960,6.0,5.46,151.52,6.37,'1111122,1111122,1111122' 
COMPS,ioos:station:USF.COMPS:NFB:1,2015-06-01T16:54:00Z,25.0840,-81.0960,6.0,5.66,152.74,6.85,'1111122,1111122,1111122' 
COMPS,ioos:station:USF.COMPS:NFB:1,2015-06-01T17:00:00Z,25.0840,-81.0960,6.0,5.52,149.74,6.56,'1111122,1111122,1111122' 
COMPS,ioos:station:USF.COMPS:NFB:1,2015-06-01T17:06:00Z,25.0840,-81.0960,6.0,6.53,152.53,7.44,'1111122,1111122,1111122' 
COMPS,ioos:station:USF.COMPS:NFB:1,2015-06-01T17:12:00Z,25.0840,-81.0960,6.0,6.71,147.13,7.83,'1111122,1111122,1111122' 
COMPS,ioos:station:USF.COMPS:NFB:1,2015-06-01T17:18:00Z,25.0840,-81.0960,6.0,6.13,150.95,7.64,'1111122,1111122,1111122' 
COMPS,ioos:station:USF.COMPS:NFB:1,2015-06-01T17:24:00Z,25.0840,-81.0960,6.0,5.46,151.44,6.37,'1111122,1111122,1111122' 
COMPS,ioos:station:USF.COMPS:NFB:1,2015-06-01T17:30:00Z,25.0840,-81.0960,6.0,5.52,156.01,6.46,'1111122,1111122,1111122' 
COMPS,ioos:station:USF.COMPS:NFB:1,2015-06-01T17:36:00Z,25.0840,-81.0960,6.0,5.25,156.07,6.46,'1111122,1111122,1111122' 
COMPS,ioos:station:USF.COMPS:NFB:1,2015-06-01T17:42:00Z,25.0840,-81.0960,6.0,5.21,152.95,6.27,'1111122,1111122,1111122' 
COMPS,ioos:station:USF.COMPS:NFB:1,2015-06-01T17:48:00Z,25.0840,-81.0960,6.0,5.72,155.2,7.25,'1111122,1111122,1111122' 
COMPS,ioos:station:USF.COMPS:NFB:1,2015-06-01T17:54:00Z,25.0840,-81.0960,6.0,5.7,160.66,6.76,'1111122,1111122,1111122' 
COMPS,ioos:station:USF.COMPS:NFB:1,2015-06-01T18:00:00Z,25.0840,-81.0960,6.0,5.73,160.44,6.85,'1111122,1111122,1111122' 
COMPS,ioos:station:USF.COMPS:NFB:1,2015-06-01T18:06:00Z,25.0840,-81.0960,6.0,5.94,159.79,6.95,'1111122,1111122,1111122' 
COMPS,ioos:station:USF.COMPS:NFB:1,2015-06-01T18:12:00Z,25.0840,-81.0960,6.0,6.27,148.87,7.54,'1111122,1111122,1111122' 
COMPS,ioos:station:USF.COMPS:NFB:1,2015-06-01T18:18:00Z,25.0840,-81.0960,6.0,6.25,157.49,7.54,'1111122,1111122,1111122' 
COMPS,ioos:station:USF.COMPS:NFB:1,2015-06-01T18:24:00Z,25.0840,-81.0960,6.0,6.2,154.02,7.25,'1111122,1111122,1111122' 
COMPS,ioos:station:USF.COMPS:NFB:1,2015-06-01T18:30:00Z,25.0840,-81.0960,6.0,6.73,150.29,8.23,'1111122,1111122,1111122' 
COMPS,ioos:station:USF.COMPS:NFB:1,2015-06-01T18:36:00Z,25.0840,-81.0960,6.0,6.16,146.25,8.13,'1111122,1111122,1111122' 
COMPS,ioos:station:USF.COMPS:NFB:1,2015-06-01T18:42:00Z,25.0840,-81.0960,6.0,6.29,154.33,6.95,'1111122,1111122,1111122' 
COMPS,ioos:station:USF.COMPS:NFB:1,2015-06-01T18:48:00Z,25.0840,-81.0960,6.0,6.29,142.94,7.15,'1111122,1111122,1111122' 
COMPS,ioos:station:USF.COMPS:NFB:1,2015-06-01T18:54:00Z,25.0840,-81.0960,6.0,6.65,139.88,7.64,'1111122,1111122,1111122' 
COMPS,ioos:station:USF.COMPS:NFB:1,2015-06-01T19:00:00Z,25.0840,-81.0960,6.0,6.25,145.2,7.25,'1111122,1111122,1111122' 
COMPS,ioos:station:USF.COMPS:NFB:1,2015-06-01T19:06:00Z,25.0840,-81.0960,6.0,5.47,149.58,6.37,'1111122,1111122,1111122' 
COMPS,ioos:station:USF.COMPS:NFB:1,2015-06-01T19:12:00Z,25.0840,-81.0960,6.0,5.52,154.08,6.27,'1111122,1111122,1111122' 
COMPS,ioos:station:USF.COMPS:NFB:1,2015-06-01T19:18:00Z,25.0840,-81.0960,6.0,5.5,153.18,6.46,'1111122,1111122,1111122' 
COMPS,ioos:station:USF.COMPS:NFB:1,2015-06-01T19:24:00Z,25.0840,-81.0960,6.0,5.06,159.65,6.27,'1111122,1111122,1111122' 
COMPS,ioos:station:USF.COMPS:NFB:1,2015-06-01T19:30:00Z,25.0840,-81.0960,6.0,4.42,160.28,5.39,'1111122,1111122,1111122' 
COMPS,ioos:station:USF.COMPS:NFB:1,2015-06-01T19:36:00Z,25.0840,-81.0960,6.0,5.05,150.05,6.07,'1111122,1111122,1111122' 
COMPS,ioos:station:USF.COMPS:NFB:1,2015-06-01T19:42:00Z,25.0840,-81.0960,6.0,4.65,158.36,5.97,'1111122,1111122,1111122' 
COMPS,ioos:station:USF.COMPS:NFB:1,2015-06-01T19:48:00Z,25.0840,-81.0960,6.0,4.95,158.97,5.87,'1111122,1111122,1111122' 
COMPS,ioos:station:USF.COMPS:NFB:1,2015-06-01T19:54:00Z,25.0840,-81.0960,6.0,5.07,157.88,5.87,'1111122,1111122,1111122' 
COMPS,ioos:station:USF.COMPS:NFB:1,2015-06-01T20:00:00Z,25.0840,-81.0960,6.0,6.22,150.83,7.35,'1111122,1111122,1111122' 
COMPS,ioos:station:USF.COMPS:NFB:1,2015-06-01T20:06:00Z,25.0840,-81.0960,6.0,5.87,154.76,6.95,'1111122,1111122,1111122' 
COMPS,ioos:station:USF.COMPS:NFB:1,2015-06-01T20:12:00Z,25.0840,-81.0960,6.0,5.81,145.73,7.05,'1111122,1111122,1111122' 
COMPS,ioos:station:USF.COMPS:NFB:1,2015-06-01T20:18:00Z,25.0840,-81.0960,6.0,4.73,131.5,5.97,'1111122,1111122,1111122' 
COMPS,ioos:station:USF.COMPS:NFB:1,2015-06-01T20:24:00Z,25.0840,-81.0960,6.0,4.88,133.01,5.87,'1111122,1111122,1111122' 
COMPS,ioos:station:USF.COMPS:NFB:1,2015-06-01T20:30:00Z,25.0840,-81.0960,6.0,4.79,133.89,5.78,'1111122,1111122,1111122' 
COMPS,ioos:station:USF.COMPS:NFB:1,2015-06-01T20:36:00Z,25.0840,-81.0960,6.0,4.76,137.99,5.48,'1111122,1111122,1111122' 
COMPS,ioos:station:USF.COMPS:NFB:1,2015-06-01T20:42:00Z,25.0840,-81.0960,6.0,5.01,140.79,6.07,'1111122,1111122,1111122' 